Regional Weather Roundup
Issued by NWS Jackson, KY

Home | Current Version | Previous Version | Text Only | Print | Product List | Glossary On
Versions: 1 2 3 4 5 6 7 8 9 10 11 12 13 14 15 16 17 18 19 20 21 22 23 24 25 26 27 28 29 30 31 32 33 34 35 36 37 38 39 40 41 42 43 44 45 46 47 48 49 50
638
ASUS43 KJKL 100710
RWRJKL

EAST KENTUCKY HOURLY WEATHER ROUNDUP
NATIONAL WEATHER SERVICE JACKSON KY
200 AM EST WED FEB 10 2016

NOTE: "FAIR" INDICATES FEW OR NO CLOUDS BELOW 12,000 FEET WITH
NO SIGNIFICANT WEATHER AND/OR OBSTRUCTIONS TO VISIBILITY.

* THESE REPORTS ARE NOT UNDER NWS QUALITY CONTROL AND MAY NOT
  REPORT WEATHER SUCH AS PRECIPITATION AND FOG.

KYZ079-080-083-085-087-088-110-112-115-119-120-100800
...EASTERN KENTUCKY...

CITY           SKY/WX    TMP DP  RH WIND       PRES   REMARKS
JACKSON        CLOUDY    18  10  71 VRB6G20   29.91S WCI  10
LONDON         CLOUDY    17  10  74 W12       29.96S WCI   4
SOMERSET*      FLURRIES  18  12  79 W10       30.02S WCI   6
MONTICELLO*    FLURRIES  18  12  77 W13G22    30.02S WCI   5
WILLIAMSBURG*  CLOUDY    18  10  73 CALM      29.98S
MIDDLESBORO*   CLOUDY    20  11  66 W7        29.97S WCI  11
HARLAN APT*    CLOUDY    19  14  79 SW6       29.92S WCI  11
HAZARD APT*    LGT SNOW N/A N/A N/A NW6       29.93S
BLACK MTN*       N/A      9   9 100 CALM        N/A
BIG SANDY*     FLURRIES  22  15  75 W9        29.89S WCI  11
MOREHEAD APT*  FLURRIES  18  10  73 VRB8      29.95S WCI   7
$$

KYZ035-036-041-042-044-050-067-078-099-100800
...CENTRAL KENTUCKY...

CITY           SKY/WX    TMP DP  RH WIND       PRES   REMARKS
MT STERLING*   CLOUDY    18  12  79 W10G17    29.96S WCI   6
DANVILLE*      FLURRIES  18  12  79 W8G17     29.99R WCI   7
RICHMOND*      CLOUDY    18  12  79 W8        29.96F WCI   7
LEXINGTON      LGT SNOW  17  12  80 W9        29.95F WCI   6
FRANKFORT      LGT SNOW  18  12  77 SW5       29.96  WCI  11
$$

KYZ091>093-OHZ055-061-077-WVZ005-015-034-035-042-100800
...SOUTHERN OHIO/WEST VIRGINIA...

CITY           SKY/WX    TMP DP  RH WIND       PRES   REMARKS
COVINGTON      LGT SNOW  16  11  80 W9        29.92S WCI   4
COLUMBUS       FLURRIES  19  12  74 W16       29.83S WCI   4
DAYTON         CLOUDY    14   9  80 W15       29.86F WCI  -1
WILMINGTON     MOCLDY    13   8  81 W13       29.87S WCI  -2
HUNTINGTON     FLURRIES  22  16  78 W10       29.89S WCI  11
CHARLESTON     LGT SNOW  22  16  78 W9        29.87R WCI  12
PINEVILLE*     LGT SNOW  21  14  76 MISG      29.87F
BECKLEY        LGT SNOW  17  11  77 NW13      29.75F WCI   4
$$

VAZ002-007-008-TNZ017-027-036-066-071-100800
...SOUTHWEST VIRGINIA/EAST TENNESSEE...

CITY           SKY/WX    TMP DP  RH WIND       PRES   REMARKS
BRISTOL        LGT SNOW  21  18  88 W9        29.89S FOG     WCI  11
KNOXVILLE      LGT SNOW  21  12  68 NW13      29.99S WCI   9
OAK RIDGE      CLOUDY    22   7  52 NW6       30.01S WCI  14
CROSSVILLE     LGT SNOW  16  10  77 W17       29.95R WCI   0
NASHVILLE      LGT SNOW  21  16  81 CALM      30.09F
$$

...KEY TO REMARKS...
VSB - VISIBILITY IN MILES
WCI - WIND CHILL INDEX
HX  - HEAT INDEX

$$




USA.gov is the U.S. government's official web portal to all federal, state and local government web resources and services.